SP5IZJ-2 Weather Reports


Display with metric or nautical units.
time (UTC)temp
F
wind
direction
speed
MPH
gust
MPH
rain 1hr
in
rain 24hr
in
rain mn
in
humidity
%
barometer
mb
20260508151702 53 135 0.0 4.0 0.00 0.00 0.00 74 1010.8
20260508151002 54 90 0.0 3.0 0.00 0.00 0.00 74 1010.7
20260508145602 53 135 1.0 4.0 0.00 0.00 0.00 74 1010.7
20260508144905 53 359 0.0 0.0 0.00 0.00 0.00 74 1010.8
20260508144203 53 113 1.0 4.0 0.00 0.00 0.00 74 1010.8
20260508142803 53 113 0.0 3.0 0.00 0.00 0.00 76 1010.8
20260508142103 53 68 0.0 3.0 0.00 0.00 0.00 75 1010.8
20260508141405 53 135 0.0 0.0 0.00 0.00 0.00 74 1010.8
20260508140703 54 135 0.0 0.0 0.00 0.00 0.00 74 1010.8
20260508135306 54 158 0.0 4.0 0.00 0.00 0.00 75 1010.9
20260508134604 53 135 0.0 4.0 0.00 0.00 0.00 76 1010.8
20260508133906 53 135 1.0 3.0 0.00 0.00 0.00 76 1010.8
20260508133204 53 158 0.0 3.0 0.00 0.00 0.00 76 1010.9
20260508132504 53 135 1.0 5.0 0.00 0.00 0.00 75 1010.8
20260508130405 54 135 1.0 5.0 0.00 0.00 0.00 74 1010.7
20260508125705 55 68 2.0 8.0 0.00 0.00 0.00 72 1010.6
20260508123607 55 68 2.0 5.0 0.00 0.00 0.00 72 1010.8
20260508122907 55 68 0.0 3.0 0.00 0.00 0.00 74 1010.8
20260508121514 55 68 1.0 4.0 0.00 0.00 0.00 73 1010.8
20260508120112 55 45 0.0 2.0 0.00 0.00 0.00 72 1010.7
20260508114007 56 68 0.0 3.0 0.00 0.00 0.00 73 1010.6
20260508113309 56 135 0.0 1.0 0.00 0.00 0.00 75 1010.7
20260508112607 55 68 0.0 2.0 0.00 0.00 0.00 77 1010.6
20260508111910 54 68 0.0 0.0 0.00 0.00 0.00 78 1010.8
20260508111210 53 90 0.0 0.0 0.00 0.00 0.00 79 1010.7
20260508110508 53 90 0.0 2.0 0.00 0.00 0.00 79 1010.7
20260508105809 52 68 0.0 3.0 0.00 0.00 0.00 79 1010.5
20260508105109 53 45 0.0 6.0 0.00 0.00 0.00 78 1010.5
20260508103724 53 135 0.0 4.0 0.00 0.00 0.00 77 1010.4
20260508102310 54 90 0.0 4.0 0.00 0.00 0.00 75 1010.5
20260508101610 55 68 1.0 4.0 0.00 0.00 0.00 73 1010.5
20260508100909 56 45 0.0 4.0 0.00 0.00 0.00 73 1010.4
20260508100211 56 359 0.0 0.0 0.00 0.00 0.00 73 1010.4
20260508095510 57 45 0.0 4.0 0.00 0.00 0.00 73 1010.3
20260508094810 57 90 0.0 5.0 0.00 0.00 0.00 74 1010.5
20260508094110 57 359 0.0 0.0 0.00 0.00 0.00 76 1010.4
20260508093410 56 359 0.0 0.0 0.00 0.00 0.00 78 1010.4
20260508092012 54 135 1.0 7.0 0.00 0.00 0.00 77 1010.4
20260508091311 55 135 1.0 4.0 0.00 0.00 0.00 79 1010.4
20260508090612 53 158 1.0 5.0 0.00 0.00 0.00 81 1010.3
20260508085212 53 135 2.0 7.0 0.00 0.00 0.00 80 1010.2
20260508084511 53 135 0.0 3.0 0.00 0.00 0.00 82 1010.3
20260508083113 52 135 1.0 6.0 0.00 0.00 0.00 83 1010.1
20260508082413 52 158 1.0 6.0 0.00 0.00 0.00 83 1010.4
20260508081713 52 359 0.0 0.0 0.00 0.00 0.00 84 1010.3
20260508081013 51 359 0.0 0.0 0.00 0.00 0.00 85 1010.0
20260508080314 51 135 0.0 3.0 0.00 0.00 0.00 85 1010.1
20260508075617 51 135 0.0 4.0 0.00 0.00 0.00 85 1010.2
20260508074213 50 135 0.0 1.0 0.00 0.00 0.00 86 1010.1
20260508072818 50 158 0.0 4.0 0.00 0.00 0.00 87 1010.3
20260508072116 49 135 0.0 4.0 0.00 0.00 0.00 87 1010.1
20260508071416 49 135 2.0 6.0 0.00 0.00 0.00 87 1010.0
20260508070021 49 158 1.0 6.0 0.00 0.00 0.00 87 1009.9
20260508065314 49 359 0.0 0.0 0.00 0.00 0.00 87 1009.7
20260508063215 49 135 3.0 6.0 0.00 0.00 0.00 88 1009.8
20260508061822 48 158 3.0 7.0 0.00 0.00 0.00 88 1009.6
20260508060415 49 158 1.0 5.0 0.00 0.00 0.00 89 1009.6
20260508055716 48 158 0.0 0.0 0.00 0.00 0.00 89 1009.5
20260508053616 48 158 0.0 0.0 0.00 0.00 0.00 89 1009.4
20260508052306 48 158 0.0 0.0 0.00 0.00 0.00 90 1009.3
20260508050817 48 135 0.0 0.0 0.00 0.00 0.00 90 1009.2
20260508050117 48 158 0.0 0.0 0.00 0.00 0.00 90 1009.1
20260508045417 47 135 0.0 0.0 0.00 0.00 0.00 90 1009.0
20260508044720 47 135 0.0 0.0 0.00 0.00 0.00 90 1009.0
20260508043318 47 158 0.0 0.0 0.00 0.00 0.00 90 1009.1
20260508042618 47 158 0.0 0.0 0.00 0.00 0.00 90 1009.0
20260508041918 47 158 0.0 0.0 0.00 0.00 0.00 90 1009.1
20260508041218 47 158 0.0 0.0 0.00 0.00 0.00 89 1009.0
20260508035819 47 158 0.0 0.0 0.00 0.00 0.00 89 1008.9
20260508033721 47 135 0.0 0.0 0.00 0.00 0.00 89 1008.7
20260508033019 47 135 0.0 0.0 0.00 0.00 0.00 88 1008.9
20260508032322 47 135 0.0 0.0 0.00 0.00 0.00 88 1009.0
20260508031620 47 158 0.0 0.0 0.00 0.00 0.00 88 1008.9
20260508030920 47 158 0.0 0.0 0.00 0.00 0.00 87 1008.9
20260508030220 47 135 0.0 0.0 0.00 0.00 0.00 87 1008.7
20260508024820 47 135 0.0 0.0 0.00 0.00 0.00 87 1008.6
20260508024125 47 135 0.0 2.0 0.00 0.00 0.00 86 1008.5
20260508023421 47 158 0.0 3.0 0.00 0.00 0.00 86 1008.5
20260508022723 48 135 0.0 4.0 0.00 0.00 0.00 86 1008.6
20260508022021 48 135 0.0 2.0 0.00 0.00 0.00 86 1008.7
20260508021321 48 359 0.0 0.0 0.00 0.00 0.00 86 1008.7
20260508020621 212 359 0.0 0.0 0.00 0.00 0.00 100
20260508015921 48 135 0.0 3.0 0.00 0.00 0.00 86 1008.7
20260508015222 48 135 0.0 5.0 0.00 0.00 0.00 86 1008.6
20260508014522 48 158 0.0 3.0 0.00 0.00 0.00 85 1008.5
20260508013822 48 158 0.0 4.0 0.00 0.00 0.00 85 1008.6
20260508013207 48 158 1.0 4.0 0.00 0.00 0.00 85 1008.5
20260508012507 48 158 1.0 7.0 0.00 0.00 0.00 85 1008.4
20260508011108 49 359 0.0 0.0 0.00 0.00 0.00 84 1008.5
20260508005708 49 359 0.0 0.0 0.00 0.00 0.00 84 1008.3
20260508004308 49 158 1.0 3.0 0.00 0.00 0.00 84 1008.3
20260508003609 49 158 0.0 2.0 0.00 0.00 0.00 84 1008.3
20260508002909 49 135 1.0 4.0 0.00 0.00 0.00 84 1008.2
20260508002209 49 359 0.0 0.0 0.00 0.00 0.00 84 1008.2
20260508001424 49 158 1.0 4.0 0.00 0.00 0.00 84 1008.3
20260508000724 49 359 0.0 0.0 0.00 0.00 0.00 84 1008.3
20260507235410 49 158 3.0 6.0 0.00 0.02 0.00 84 1008.1
20260507234710 49 158 2.0 7.0 0.00 0.02 0.00 84 1008.1
20260507233310 49 158 1.0 4.0 0.00 0.02 0.00 84 1008.1
20260507232612 49 158 1.0 3.0 0.00 0.02 0.00 84 1008.0
20260507231128 50 158 1.0 7.0 0.00 0.02 0.00 84 1008.0
20260507230433 50 158 2.0 8.0 0.00 0.02 0.00 84 1008.1
20260507225026 50 158 2.0 8.0 0.00 0.06 0.00 84 1008.0
20260507224326 50 135 3.0 8.0 0.00 0.06 0.00 84 1008.0
20260507223627 50 158 4.0 8.0 0.00 0.06 0.00 85 1008.0
20260507222927 50 135 2.0 5.0 0.00 0.06 0.00 85 1007.9
20260507221527 50 158 2.0 7.0 0.00 0.06 0.00 85 1007.7
20260507220832 50 158 1.0 5.0 0.00 0.06 0.00 85 1007.9
20260507220132 50 135 1.0 4.0 0.00 0.06 0.00 85 1007.9
20260507215428 50 135 2.0 4.0 0.00 0.06 0.00 85 1007.6
20260507214748 54 135 0.0 4.0 0.00 0.06 0.00 85 1007.7
20260507214741 50 135 0.0 4.0 0.00 0.06 0.00 85 1007.7
20260507214032 50 135 0.0 4.0 0.00 0.06 0.00 85 1007.8
20260507213330 50 135 0.0 4.0 0.00 0.06 0.00 85 1007.5
20260507212628 50 90 0.0 2.0 0.00 0.06 0.00 85 1007.6
20260507210553 51 135 1.0 4.0 0.00 0.06 0.00 84 1007.5
20260507205836 51 135 0.0 3.0 0.00 0.06 0.00 84 1007.5
20260507205136 51 135 0.0 0.0 0.00 0.06 0.00 84 1007.5
20260507204429 51 135 0.0 1.0 0.00 0.06 0.00 84 1007.6
20260507203749 51 135 0.0 0.0 0.00 0.06 0.00 84 1007.4
20260507202332 51 158 0.0 0.0 0.00 0.06 0.00 83 1007.4
20260507200930 51 158 0.0 0.0 0.00 0.06 0.00 83 1007.5
20260507195531 51 158 0.0 1.0 0.00 0.06 0.00 83 1007.4
20260507194831 51 135 0.0 2.0 0.00 0.06 0.00 83 1007.1
20260507194131 51 158 0.0 0.0 0.00 0.06 0.00 83 1007.4
20260507193431 52 158 0.0 3.0 0.00 0.06 0.00 83 1007.2
20260507192310 52 158 0.0 3.0 0.00 0.06 0.00 83 1006.9
20260507192152 52 158 0.0 3.0 0.00 0.06 0.00 83 1006.9
20260507192120 52 158 0.0 3.0 0.00 0.06 0.00 83 1006.9
20260507192041 52 158 0.0 3.0 0.00 0.06 0.00 83 1006.9
20260507192031 52 158 0.0 3.0 0.00 0.06 0.00 83 1006.9
20260507191334 52 158 0.0 0.0 0.00 0.06 0.00 82 1006.8
20260507190807 52 158 0.0 2.0 0.00 0.06 0.00 82 1006.6
20260507190730 52 158 0.0 2.0 0.00 0.06 0.00 82 1006.6
20260507190658 52 158 0.0 2.0 0.00 0.06 0.00 82 1006.6
20260507190632 52 158 0.0 2.0 0.00 0.06 0.00 82 1006.6
20260507185932 52 158 1.0 4.0 0.00 0.06 0.00 82 1006.8
20260507184625 52 135 0.0 0.0 0.00 0.06 0.00 81 1006.7
20260507184617 52 135 0.0 0.0 0.00 0.06 0.00 81 1006.7
20260507183133 52 158 0.0 1.0 0.00 0.06 0.00 81 1006.7
20260507182433 52 135 0.0 0.0 0.00 0.06 0.00 80 1006.4
20260507181633 53 135 0.0 2.0 0.00 0.06 0.00 80 1006.5
20260507181102 53 135 0.0 2.0 0.00 0.06 0.00 80 1006.5
20260507180418 53 90 0.0 2.0 0.00 0.06 0.00 80 1006.4
20260507175634 53 135 0.0 0.0 0.00 0.06 0.00 79 1006.3
20260507174938 53 135 0.0 0.0 0.00 0.06 0.00 79 1006.4
20260507172143 53 135 0.0 3.0 0.00 0.06 0.00 78 1005.6
20260507171439 53 135 2.0 7.0 0.00 0.06 0.00 78 1005.6
20260507170820 53 135 3.0 7.0 0.00 0.06 0.00 77 1005.4
20260507165335 54 158 4.0 10.0 0.00 0.06 0.00 77 1005.2
20260507163940 55 135 4.0 8.0 0.00 0.06 0.00 76 1005.1
20260507162536 55 158 4.0 7.0 0.00 0.06 0.00 76 1005.0
20260507161136 56 158 3.0 7.0 0.00 0.06 0.00 76 1005.0
20260507160436 56 359 0.0 0.0 0.00 0.06 0.00 75 1005.3
20260507155039 56 135 2.0 6.0 0.00 0.06 0.00 75 1005.2
20260507154337 56 158 3.0 7.0 0.00 0.06 0.00 75 1005.1